Other Surface Observations
Issued by NWS Tucson, AZ

Home | Current Version | Previous Version | Text Only | Print | Product List | Glossary On
Versions: 1 2 3 4 5 6 7 8 9 10 11 12 13 14 15 16 17 18 19 20 21 22 23 24 25 26 27 28 29 30 31 32 33 34 35 36 37 38 39 40 41 42 43 44 45 46 47 48 49 50
000
SXUS55 KTWC 260915
OSOTWC

WEATHER ROUNDUP FOR SOUTHEAST ARIZONA
NATIONAL WEATHER SERVICE TUCSON AZ
215 AM MST SUN APR 26 2015

AZZ504>506-514-261015-
LOCATION       SKY/WX    TMP DP  RH WIND       PRES   REMARKS
TUCSON         LGT RAIN  60  45  57 W15G24    29.82F
DAVIS-MONTHAN  DRIZZLE   59  46  61 W15G22    29.80F
CHILDRENS PARK N/A       63  42  46 W8                PIMA CO DEQ
ALVERNON/22ND  N/A      N/A N/A N/A N/A               PIMA CO DEQ
CHERRY/GLENN   N/A      N/A N/A N/A N/A               PIMA CO DEQ
TANGERINE      N/A       58 N/A N/A NW9               PIMA CO DEQ
CONTL RANCH    N/A       61  47  60 NW10              PIMA CO DEQ
GRANT/1ST      N/A       65  40  40 S3                PIMA CO DEQ
CRAYCROFT/22ND N/A      N/A N/A N/A N/A               PIMA CO DEQ
GOLFLINKS/KOLB N/A      N/A N/A N/A N/A               PIMA CO DEQ
AJO/12TH       N/A       65  40  40 SW11              PIMA CO DEQ
SAGUARO EAST   N/A      N/A N/A N/A N/A               PIMA CO DEQ
FAIRGROUNDS    N/A       62 N/A N/A SW17              PIMA CO DEQ
SAGUARO        N/A       57  45  64 W5G23             *SABINO CYN
SAN CARLOS     N/A       50  48  92 E2G27             *SAN CARLOS
GREEN VALLEY   N/A       61  38  42 SW13              PIMA CO DEQ
HORSE CAMP CYN N/A       45  44  96 W17G27            *ARAVAIPA CYN
RINCON MTNS    N/A       33  32  97 SW8G21            *NR MANNING CAMP
$$

AZZ509>511-261015-
LOCATION       SKY/WX    TMP DP  RH WIND       PRES   REMARKS
SAFFORD        CLOUDY    58  39  49 NW23G30   29.74F
STRAY HORSE    N/A       35  32  89 W17G27            *
TRAIL CABIN    N/A       42  37  83 S6G12             *N OF GRANVILLE
BLACK HILLS    N/A       48  46  92 NW15G29           *N OF FT THOMAS
DRY LAKE       N/A       36  35  96 W6G19             *NATANES MTNS
NOON CREEK     N/A       53  34  48 SW19G36           *PINALENO MTNS
COLUMBINE      N/A       30  24  79 S11G29            *PINALENO MTNS
GUTHRIE        N/A       47  31  53 W20G35            *SW OF GUTHRIE
$$

AZZ502-503-513-261015-
LOCATION       SKY/WX    TMP DP  RH WIND       PRES   REMARKS
NOGALES        CLOUDY    56  37  49 SW10      29.86F
SELLS          N/A       56  46  69 SW7G24            *
SASABE         N/A       57  40  53 SW7G24            *ALTAR VLY
HOPKINS        N/A       40  32  74 W9G20             *SANTA RITA MTNS
CARR CYN       N/A       49  33  54 SW4G12            *W OF HEREFORD
$$

AZZ507-508-512-261015-
LOCATION       SKY/WX    TMP DP  RH WIND       PRES   REMARKS
SIERRA VISTA   CLOUDY    54  34  46 SW12      29.85F
DOUGLAS        CLOUDY    57  33  40 W16G24    29.86F
EMPIRE MTNS    N/A       53  36  53 SW13G20           *LAS CIENEGAS NCA
MULESHOE RANCH N/A       54  37  52 W9G23             *PRESERVE
HEADQUARTERS   N/A       54  24  31 W7G25             *CHIRICAHUA MTNS
$$

.............................NOTES.............................
THIS IS AN AUTOMATED COLLECTIVE WITH MINIMAL QUALITY CONTROL.
PIMA CO DEQ SITES HAVE NONSTANDARD WIND SENSOR HEIGHTS.
PIMA CO DEQ SITES DO NOT REPORT WIND GUSTS.
* INDICATES WIND SENSORS LOCATED AT 20 FEET INSTEAD OF 33 FEET.
..............................KEY..............................
SKY/WX - SKY CONDITION/WEATHER
TMP    - TEMPERATURE IN FAHRENHEIT
DP     - DEWPOINT IN FAHRENHEIT
RH     - RELATIVE HUMIDITY IN PERCENT
WIND   - DIRECTION AND SPEED IN MILES PER HOUR (MPH)
VRB    - VARIABLE WIND DIRECTION
PRES   - MEAN SEA LEVEL PRESSURE IN INCHES OF MERCURY
         F - FALLING PRESSURE   R - RISING PRESSURE
         S - STEADY PRESSURE
VSB    - VISIBILITY IN MILES
HX     - HEAT INDEX IN FAHRENHEIT
WCI    - WIND CHILL INDEX IN FAHRENHEIT
N/A    - NOT AVAILABLE
AFB    - AIR FORCE BASE
         DAVIS-MONTHAN IS DAVIS-MONTHAN AIR FORCE BASE
CYN    - CANYON
MTNS   - MOUNTAINS
NCA    - NATIONAL CONSERVATION AREA
NR     - NEAR
VLY    - VALLEY
CONTL  - CONTINENTAL
PIMA CO DEQ - PIMA COUNTY DEPT OF ENVIRONMENTAL QUALITY



USA.gov is the U.S. government's official web portal to all federal, state and local government web resources and services.